Location: Val-d'Or
(48.1170°N, 77.7670°W)
Time: 05:27:25
(UTC-04:00)

ISS - Pass Details

Date: 20 May 2018
Orbit: 402 x 407 km, 51.6° (Epoch: 27 May)

Event Time Altitude Azimuth Distance (km) Brightness Sun altitude
Rises 21:42:24 0° 198° (SSW) 2,306 -0.2 -7.8°
Reaches altitude 10° 21:45:05 10° 174° (S) 1,451 -1.5 -8.1°
Maximum altitude 21:47:02 15° 137° (SE) 1,187 -2.1 -8.3°
Drops below altitude 10° 21:49:00 10° 100° (E) 1,456 -1.5 -8.6°
Sets 21:51:41 0° 76° (ENE) 2,319 -0.3 -8.9°
